TimePDT,TemperatureF,Dew PointF,Humidity,Sea Level PressureIn,VisibilityMPH,Wind Direction,Wind SpeedMPH,Gust SpeedMPH,PrecipitationIn,Events,Conditions,WindDirDegrees,DateUTC
12:53 AM,43.0,23.0,45,29.99,10.0,ESE,4.6,-,N/A,,Clear,120,2012-10-08 07:53:00
1:53 AM,41.0,23.0,49,29.99,10.0,Calm,Calm,-,N/A,,Clear,0,2012-10-08 08:53:00
2:53 AM,39.9,23.0,51,29.99,10.0,Calm,Calm,-,N/A,,Clear,0,2012-10-08 09:53:00
3:53 AM,37.9,26.1,62,29.98,10.0,ESE,4.6,-,N/A,,Clear,120,2012-10-08 10:53:00
4:53 AM,37.9,26.1,62,29.99,10.0,Calm,Calm,-,N/A,,Clear,0,2012-10-08 11:53:00
5:53 AM,35.1,21.9,59,30.00,10.0,SE,5.8,-,N/A,,Clear,130,2012-10-08 12:53:00
6:53 AM,36.0,25.0,64,30.01,10.0,Calm,Calm,-,N/A,,Clear,0,2012-10-08 13:53:00
7:53 AM,37.0,25.0,62,30.02,10.0,Calm,Calm,-,N/A,,Clear,0,2012-10-08 14:53:00
8:53 AM,43.0,30.9,62,30.02,10.0,Calm,Calm,-,N/A,,Clear,0,2012-10-08 15:53:00
9:53 AM,46.9,28.9,50,30.01,10.0,Calm,Calm,-,N/A,,Clear,0,2012-10-08 16:53:00
10:53 AM,54.0,28.9,38,29.99,10.0,Calm,Calm,-,N/A,,Clear,0,2012-10-08 17:53:00
11:53 AM,57.0,28.9,34,29.97,10.0,Calm,Calm,-,N/A,,Clear,0,2012-10-08 18:53:00
12:53 PM,64.0,28.0,26,29.94,10.0,Calm,Calm,-,N/A,,Clear,0,2012-10-08 19:53:00
1:53 PM,69.1,28.0,22,29.91,10.0,NNE,3.5,-,N/A,,Clear,30,2012-10-08 20:53:00
2:53 PM,72.0,28.0,20,29.88,10.0,Calm,Calm,-,N/A,,Clear,0,2012-10-08 21:53:00
3:53 PM,73.9,28.9,19,29.87,10.0,Calm,Calm,-,N/A,,Clear,0,2012-10-08 22:53:00
4:53 PM,75.9,30.9,19,29.86,10.0,WNW,4.6,-,N/A,,Clear,290,2012-10-08 23:53:00
5:53 PM,73.0,34.0,24,29.86,10.0,North,-9999.0,-,N/A,,Clear,0,2012-10-09 00:53:00
7:53 PM,66.9,35.1,31,29.89,10.0,NW,12.7,19.6,N/A,,Clear,320,2012-10-09 02:53:00
8:53 PM,66.0,36.0,33,29.91,10.0,WNW,8.1,-,N/A,,Clear,300,2012-10-09 03:53:00
9:53 PM,64.0,36.0,35,29.93,10.0,NW,9.2,-,N/A,,Clear,310,2012-10-09 04:53:00
10:53 PM,63.0,37.0,38,29.95,10.0,WNW,9.2,-,N/A,,Clear,300,2012-10-09 05:53:00
11:53 PM,62.1,37.9,41,29.96,10.0,NW,10.4,-,N/A,,Clear,310,2012-10-09 06:53:00